EAG36WA EGCC-EGAC

Flight info

Callsign EAG36WA
Flight time 0h 43m
Altitude 18000
Route ASMIM L975 WAL M146 ROBOP M147 MAGEE
Aircraft AT76/M-SDFGIRY/S

Departure

Time 2026-05-06 13:41
Airport Manchester Airport (EGCC)

Arrival

Time 2026-05-06 14:25
Airport George Best Belfast City Airport (EGAC)
Time Latitude Longitude Altitude Speed Heading
2026-05-06 13:24 53.36530 -2.28859 244 ft 0 kts 225°
2026-05-06 13:30 53.36539 -2.28844 244 ft 5 kts 225°
2026-05-06 13:31 53.36570 -2.28811 244 ft 6 kts 170°
2026-05-06 13:31 53.36610 -2.28858 244 ft 8 kts 135°
2026-05-06 13:31 53.36629 -2.28889 244 ft 0 kts 135°
2026-05-06 13:34 53.36628 -2.28888 244 ft 1 kts 135°
2026-05-06 13:34 53.36611 -2.28859 244 ft 6 kts 135°
2026-05-06 13:34 53.36586 -2.28795 244 ft 7 kts 116°
2026-05-06 13:34 53.36556 -2.28718 244 ft 9 kts 133°
2026-05-06 13:35 53.36511 -2.28643 244 ft 10 kts 135°
2026-05-06 13:35 53.36461 -2.28559 244 ft 11 kts 134°
2026-05-06 13:35 53.36440 -2.28522 244 ft 0 kts 134°
2026-05-06 13:35 53.36420 -2.28495 244 ft 9 kts 148°
2026-05-06 13:36 53.36351 -2.28468 244 ft 11 kts 161°
2026-05-06 13:36 53.36295 -2.28388 244 ft 11 kts 135°
2026-05-06 13:36 53.36242 -2.28297 244 ft 11 kts 134°
2026-05-06 13:36 53.36188 -2.28206 244 ft 11 kts 135°
2026-05-06 13:37 53.36135 -2.28114 244 ft 11 kts 134°
2026-05-06 13:37 53.36080 -2.28023 244 ft 11 kts 135°
2026-05-06 13:37 53.36025 -2.27932 244 ft 11 kts 135°
2026-05-06 13:37 53.35967 -2.27849 244 ft 11 kts 144°
2026-05-06 13:38 53.35899 -2.27849 244 ft 10 kts 187°
2026-05-06 13:38 53.35826 -2.27862 244 ft 11 kts 185°
2026-05-06 13:38 53.35748 -2.27874 243 ft 12 kts 185°
2026-05-06 13:38 53.35667 -2.27888 243 ft 12 kts 185°
2026-05-06 13:39 53.35598 -2.27956 241 ft 13 kts 231°
2026-05-06 13:39 53.35536 -2.28077 237 ft 11 kts 223°
2026-05-06 13:39 53.35466 -2.28146 237 ft 12 kts 201°
2026-05-06 13:39 53.35384 -2.28165 235 ft 12 kts 186°
2026-05-06 13:40 53.35299 -2.28182 233 ft 13 kts 186°
2026-05-06 13:40 53.35206 -2.28198 231 ft 14 kts 185°
2026-05-06 13:40 53.35119 -2.28183 234 ft 12 kts 145°
2026-05-06 13:40 53.35088 -2.28097 235 ft 8 kts 69°
2026-05-06 13:41 53.35195 -2.27861 243 ft 52 kts 51°
2026-05-06 13:41 53.35550 -2.27138 258 ft 108 kts 51°
2026-05-06 13:41 53.36093 -2.26032 533 ft 129 kts 49°
2026-05-06 13:41 53.36717 -2.24880 1047 ft 138 kts 49°
2026-05-06 13:42 53.37330 -2.23615 1674 ft 142 kts 53°
2026-05-06 13:42 53.37942 -2.22282 2306 ft 147 kts 53°
2026-05-06 13:42 53.38691 -2.21108 2887 ft 153 kts 21°
2026-05-06 13:42 53.39743 -2.21367 3463 ft 165 kts 331°
2026-05-06 13:43 53.40678 -2.22577 3947 ft 176 kts 320°
2026-05-06 13:43 53.41472 -2.24221 4405 ft 188 kts 307°
2026-05-06 13:43 53.42205 -2.26113 4875 ft 199 kts 303°
2026-05-06 13:43 53.42912 -2.28169 5345 ft 207 kts 301°
2026-05-06 13:44 53.43587 -2.30314 5813 ft 213 kts 300°
2026-05-06 13:44 53.44272 -2.32552 6285 ft 217 kts 299°
2026-05-06 13:44 53.44963 -2.34834 6735 ft 221 kts 299°
2026-05-06 13:44 53.45653 -2.37164 7198 ft 224 kts 299°
2026-05-06 13:45 53.46353 -2.39529 7653 ft 227 kts 298°
2026-05-06 13:45 53.47044 -2.44619 8591 ft 232 kts 263°
2026-05-06 13:45 53.46722 -2.47293 9056 ft 235 kts 259°
2026-05-06 13:46 53.46361 -2.49970 9537 ft 236 kts 259°
2026-05-06 13:46 53.46007 -2.52631 10004 ft 236 kts 259°
2026-05-06 13:46 53.45680 -2.55321 10450 ft 231 kts 261°
2026-05-06 13:46 53.45389 -2.57925 10889 ft 223 kts 261°
2026-05-06 13:47 53.45111 -2.60444 11337 ft 216 kts 261°
2026-05-06 13:47 53.44842 -2.62885 11797 ft 209 kts 261°
2026-05-06 13:47 53.44574 -2.65252 12262 ft 203 kts 261°
2026-05-06 13:47 53.44318 -2.67542 12719 ft 198 kts 262°
2026-05-06 13:48 53.44071 -2.69825 13030 ft 200 kts 262°
2026-05-06 13:48 53.43819 -2.72123 13356 ft 201 kts 262°
2026-05-06 13:48 53.43567 -2.74404 13678 ft 201 kts 262°
2026-05-06 13:48 53.43309 -2.76714 13987 ft 202 kts 262°
2026-05-06 13:49 53.43054 -2.79028 14274 ft 202 kts 262°
2026-05-06 13:49 53.42796 -2.81341 14573 ft 202 kts 262°
2026-05-06 13:49 53.42535 -2.83662 14880 ft 202 kts 262°
2026-05-06 13:49 53.42275 -2.85975 15183 ft 201 kts 262°
2026-05-06 13:50 53.42018 -2.88281 15486 ft 201 kts 262°
2026-05-06 13:50 53.41760 -2.90578 15797 ft 200 kts 261°
2026-05-06 13:50 53.41500 -2.92875 16099 ft 199 kts 261°
2026-05-06 13:50 53.41243 -2.95147 16409 ft 198 kts 261°
2026-05-06 13:51 53.40990 -2.97380 16721 ft 197 kts 262°
2026-05-06 13:51 53.40736 -2.99625 17032 ft 195 kts 261°
2026-05-06 13:51 53.40484 -3.01846 17356 ft 193 kts 261°
2026-05-06 13:51 53.40235 -3.04040 17679 ft 191 kts 261°
2026-05-06 13:52 53.39985 -3.06237 17889 ft 194 kts 261°
2026-05-06 13:52 53.39730 -3.08515 17979 ft 204 kts 261°
2026-05-06 13:52 53.39472 -3.10904 18008 ft 214 kts 262°
2026-05-06 13:52 53.39251 -3.13422 18024 ft 220 kts 271°
2026-05-06 13:53 53.39766 -3.15821 18043 ft 229 kts 309°
2026-05-06 13:53 53.41018 -3.17563 18036 ft 239 kts 321°
2026-05-06 13:53 53.42376 -3.19261 18034 ft 247 kts 320°
2026-05-06 13:53 53.43703 -3.21076 18034 ft 252 kts 316°
2026-05-06 13:54 53.44980 -3.23118 18026 ft 255 kts 313°
2026-05-06 13:54 53.46220 -3.25282 18027 ft 258 kts 311°
2026-05-06 13:54 53.47465 -3.27487 18027 ft 261 kts 311°
2026-05-06 13:54 53.48723 -3.29708 18027 ft 264 kts 311°
2026-05-06 13:55 53.49987 -3.31950 18027 ft 265 kts 311°
2026-05-06 13:55 53.51260 -3.34216 18032 ft 267 kts 311°
2026-05-06 13:55 53.52536 -3.36491 18032 ft 268 kts 311°
2026-05-06 13:55 53.53816 -3.38778 18033 ft 269 kts 311°
2026-05-06 13:56 53.55100 -3.41074 18033 ft 270 kts 311°
2026-05-06 13:56 53.56384 -3.43371 18033 ft 270 kts 311°
2026-05-06 13:56 53.57658 -3.45653 18033 ft 271 kts 311°
2026-05-06 13:56 53.58948 -3.47962 18033 ft 271 kts 311°
2026-05-06 13:57 53.60239 -3.50280 18033 ft 271 kts 311°
2026-05-06 13:57 53.61531 -3.52597 18033 ft 271 kts 311°
2026-05-06 13:57 53.62824 -3.54919 18033 ft 272 kts 311°
2026-05-06 13:57 53.64118 -3.57244 18033 ft 272 kts 311°
2026-05-06 13:58 53.65409 -3.59563 18033 ft 272 kts 311°
2026-05-06 13:58 53.66701 -3.61890 18033 ft 272 kts 311°
2026-05-06 13:58 53.67995 -3.64219 18033 ft 272 kts 311°
2026-05-06 13:58 53.69283 -3.66553 18047 ft 271 kts 309°
2026-05-06 13:59 53.70117 -3.69306 18043 ft 265 kts 287°
2026-05-06 13:59 53.70976 -3.72015 18042 ft 264 kts 306°
2026-05-06 13:59 53.72122 -3.74463 18039 ft 267 kts 306°
2026-05-06 13:59 53.73215 -3.76997 18033 ft 267 kts 302°
2026-05-06 14:00 53.74211 -3.79649 18034 ft 268 kts 300°
2026-05-06 14:00 53.75168 -3.82359 18036 ft 268 kts 300°
2026-05-06 14:00 53.75799 -3.84155 18036 ft 268 kts 299°
2026-05-06 14:00 53.76755 -3.86871 18036 ft 269 kts 300°
2026-05-06 14:01 53.77724 -3.89580 18037 ft 269 kts 300°
2026-05-06 14:01 53.78704 -3.92286 18041 ft 270 kts 300°
2026-05-06 14:01 53.79685 -3.94996 18040 ft 270 kts 300°
2026-05-06 14:01 53.80668 -3.97707 18037 ft 270 kts 300°
2026-05-06 14:02 53.81651 -4.00418 18037 ft 271 kts 300°
2026-05-06 14:02 53.82633 -4.03137 18037 ft 271 kts 300°
2026-05-06 14:02 53.83620 -4.05861 18037 ft 271 kts 300°
2026-05-06 14:02 53.84605 -4.08592 18037 ft 271 kts 300°
2026-05-06 14:03 53.85574 -4.11280 18036 ft 271 kts 300°
2026-05-06 14:03 53.86556 -4.14007 18036 ft 271 kts 300°
2026-05-06 14:03 53.87542 -4.16726 18040 ft 271 kts 301°
2026-05-06 14:03 53.88584 -4.19379 18031 ft 271 kts 303°
2026-05-06 14:04 53.89676 -4.21997 18036 ft 271 kts 303°
2026-05-06 14:04 53.90762 -4.24623 18039 ft 271 kts 303°
2026-05-06 14:04 53.91837 -4.27255 18040 ft 271 kts 303°
2026-05-06 14:04 53.92907 -4.29890 18048 ft 272 kts 303°
2026-05-06 14:05 53.93978 -4.32531 18045 ft 272 kts 303°
2026-05-06 14:05 53.95054 -4.35166 18044 ft 272 kts 303°
2026-05-06 14:05 53.96133 -4.37805 18043 ft 272 kts 303°
2026-05-06 14:05 53.97207 -4.40451 18049 ft 272 kts 303°
2026-05-06 14:06 53.98264 -4.43059 18042 ft 272 kts 303°
2026-05-06 14:06 53.99336 -4.45702 18045 ft 272 kts 303°
2026-05-06 14:06 54.00410 -4.48347 18045 ft 271 kts 303°
2026-05-06 14:06 54.01483 -4.50999 18046 ft 271 kts 303°
2026-05-06 14:07 54.02603 -4.53571 18046 ft 271 kts 309°
2026-05-06 14:07 54.03918 -4.55903 18047 ft 273 kts 313°
2026-05-06 14:07 54.05266 -4.58193 18047 ft 273 kts 313°
2026-05-06 14:07 54.06586 -4.60520 18050 ft 273 kts 311°
2026-05-06 14:08 54.07871 -4.62902 18052 ft 273 kts 310°
2026-05-06 14:08 54.09134 -4.65261 18049 ft 273 kts 310°
2026-05-06 14:08 54.10416 -4.67648 18050 ft 273 kts 310°
2026-05-06 14:08 54.11698 -4.70043 18036 ft 273 kts 310°
2026-05-06 14:09 54.12982 -4.72433 18036 ft 273 kts 310°
2026-05-06 14:09 54.14264 -4.74832 18038 ft 274 kts 310°
2026-05-06 14:09 54.15547 -4.77226 18040 ft 274 kts 310°
2026-05-06 14:09 54.16828 -4.79627 18035 ft 273 kts 310°
2026-05-06 14:10 54.18112 -4.82028 18032 ft 273 kts 310°
2026-05-06 14:10 54.19398 -4.84440 17865 ft 277 kts 310°
2026-05-06 14:10 54.20688 -4.86859 17592 ft 274 kts 310°
2026-05-06 14:10 54.21962 -4.89255 17298 ft 272 kts 310°
2026-05-06 14:11 54.23237 -4.91654 16916 ft 273 kts 310°
2026-05-06 14:11 54.24500 -4.94029 16549 ft 274 kts 310°
2026-05-06 14:11 54.25779 -4.96442 16159 ft 275 kts 310°
2026-05-06 14:11 54.27068 -4.98868 15691 ft 275 kts 310°
2026-05-06 14:12 54.28348 -5.01291 15219 ft 274 kts 310°
2026-05-06 14:12 54.29634 -5.03717 14717 ft 275 kts 310°
2026-05-06 14:12 54.30919 -5.06151 14225 ft 276 kts 310°
2026-05-06 14:12 54.32209 -5.08595 13726 ft 276 kts 310°
2026-05-06 14:13 54.33501 -5.11042 13178 ft 276 kts 310°
2026-05-06 14:13 54.34789 -5.13490 12650 ft 276 kts 310°
2026-05-06 14:13 54.36077 -5.15936 12116 ft 276 kts 310°
2026-05-06 14:13 54.37347 -5.18352 11618 ft 276 kts 310°
2026-05-06 14:14 54.38630 -5.20790 11115 ft 275 kts 310°
2026-05-06 14:14 54.39908 -5.23233 10616 ft 275 kts 310°
2026-05-06 14:14 54.41188 -5.25673 10121 ft 275 kts 310°
2026-05-06 14:14 54.42465 -5.28112 9597 ft 274 kts 310°
2026-05-06 14:15 54.43746 -5.30548 9055 ft 274 kts 310°
2026-05-06 14:15 54.45015 -5.32983 8540 ft 272 kts 311°
2026-05-06 14:15 54.46531 -5.34817 8269 ft 263 kts 333°
2026-05-06 14:15 54.48099 -5.36261 8150 ft 248 kts 322°
2026-05-06 14:16 54.49470 -5.38077 7725 ft 252 kts 320°
2026-05-06 14:16 54.50850 -5.39967 7288 ft 256 kts 319°
2026-05-06 14:16 54.52250 -5.41898 6862 ft 259 kts 319°
2026-05-06 14:16 54.53658 -5.43863 6427 ft 261 kts 319°
2026-05-06 14:17 54.55065 -5.45870 5949 ft 264 kts 319°
2026-05-06 14:17 54.56478 -5.47892 5489 ft 265 kts 319°
2026-05-06 14:17 54.57898 -5.49938 5027 ft 266 kts 319°
2026-05-06 14:17 54.59301 -5.51962 4533 ft 259 kts 318°
2026-05-06 14:18 54.60665 -5.53906 4224 ft 248 kts 319°
2026-05-06 14:18 54.61960 -5.55755 4089 ft 234 kts 318°
2026-05-06 14:18 54.63197 -5.57471 4013 ft 223 kts 318°
2026-05-06 14:18 54.64369 -5.59088 3719 ft 209 kts 318°
2026-05-06 14:19 54.65488 -5.60635 3334 ft 198 kts 318°
2026-05-06 14:19 54.66532 -5.62072 3121 ft 190 kts 319°
2026-05-06 14:19 54.67536 -5.63474 3057 ft 186 kts 318°
2026-05-06 14:19 54.68541 -5.64876 2826 ft 189 kts 319°
2026-05-06 14:20 54.69568 -5.66328 2393 ft 192 kts 318°
2026-05-06 14:20 54.70582 -5.67766 2168 ft 183 kts 319°
2026-05-06 14:20 54.71466 -5.69289 2074 ft 178 kts 303°
2026-05-06 14:20 54.71898 -5.71174 2033 ft 166 kts 271°
2026-05-06 14:21 54.71980 -5.73128 2001 ft 159 kts 263°
2026-05-06 14:21 54.71713 -5.74897 1995 ft 150 kts 241°
2026-05-06 14:21 54.71114 -5.76211 1974 ft 135 kts 205°
2026-05-06 14:21 54.70313 -5.77026 1949 ft 135 kts 209°
2026-05-06 14:22 54.69532 -5.77990 1766 ft 137 kts 210°
2026-05-06 14:22 54.68769 -5.78928 1562 ft 132 kts 210°
2026-05-06 14:22 54.68005 -5.79802 1375 ft 132 kts 211°
2026-05-06 14:22 54.67257 -5.80722 1183 ft 132 kts 210°
2026-05-06 14:23 54.66546 -5.81606 982 ft 120 kts 208°
2026-05-06 14:23 54.65861 -5.82342 868 ft 114 kts 207°
2026-05-06 14:23 54.65223 -5.83114 792 ft 111 kts 212°
2026-05-06 14:23 54.64605 -5.83883 608 ft 110 kts 212°
2026-05-06 14:24 54.63994 -5.84620 439 ft 105 kts 211°
2026-05-06 14:24 54.63372 -5.85378 275 ft 108 kts 209°
2026-05-06 14:24 54.62763 -5.86114 134 ft 106 kts 207°
2026-05-06 14:24 54.62180 -5.86815 23 ft 90 kts 205°
2026-05-06 14:25 54.61935 -5.87098 20 ft 24 kts 217°
2026-05-06 14:25 54.61824 -5.87233 21 ft 17 kts 214°
2026-05-06 14:25 54.61741 -5.87331 21 ft 12 kts 217°
2026-05-06 14:25 54.61678 -5.87410 20 ft 10 kts 216°
2026-05-06 14:26 54.61615 -5.87485 19 ft 16 kts 214°
2026-05-06 14:26 54.61507 -5.87609 17 ft 17 kts 212°
2026-05-06 14:26 54.61419 -5.87706 17 ft 13 kts 214°
2026-05-06 14:26 54.61300 -5.87769 20 ft 14 kts 134°
2026-05-06 14:27 54.61260 -5.87667 19 ft 6 kts 123°
2026-05-06 14:27 54.61295 -5.87549 20 ft 15 kts 31°
2026-05-06 14:27 54.61381 -5.87441 20 ft 15 kts 37°
2026-05-06 14:27 54.61447 -5.87323 20 ft 13 kts 36°
2026-05-06 14:28 54.61449 -5.87255 20 ft 3 kts 126°
2026-05-06 14:28 54.61442 -5.87239 22 ft 1 kts 126°